Location: Wiler
(46.4041°N, 7.7840°E)
Time: 16:19:04
(UTC+00:00)

USA 186 - Pass Details

Date: 09 April 2020
Orbit: 263 x 445 km, 96.9° (Epoch: 31 May)

Event Time Altitude Azimuth Distance (km) Brightness Sun altitude
Rises 18:06:31 0° 134° (SE) 2,400 5.1 -0.4°
Reaches altitude 10° 18:08:57 10° 116° (ESE) 1,510 3.9 -0.8°
Drops below altitude 10° 18:13:33 10° 23° (NNE) 1,454 4.4 -1.6°
Enters shadow 19:09:50 -62° 170° (S) 11,642 9.0 -10.8°
Maximum altitude 19:42:07 25° 264° (W) 889 4.0 -15.7°
